Cloquet, MN

3:05 PM CST on December 11, 2019 (GMT -0600)
Cloquet Carlton County

Weather History for KCOQ - October, 2019

Change the Weather History Date:

Wednesday, October 23, 2019

  Actual Average Record
Temperature  
Mean Temperature 38 °F -  
Max Temperature 42 °F 47 °F 66 °F (1998)
Min Temperature 33 °F 33 °F 24 °F (2002)
Degree Days  
Heating Degree Days 28    
Moisture  
Dew Point 30 °F    
Average Humidity 75    
Maximum Humidity 87    
Minimum Humidity 57    
Precipitation  
Precipitation 0.00 in - - ()
Sea Level Pressure  
Sea Level Pressure 29.81 in    
Wind  
Wind Speed 11 mph ()    
Max Wind Speed 17 mph    
Max Gust Speed 25 mph    
Visibility 9.9 miles    
Events Rain    
Averages and records for this station are not official NWS values.
T = Trace of Precipitation, MM = Missing Value Source: Averaged Metar Reports

Daily Weather History Graph

Daily Weather History Graph

Search for Another Location

Airport or City:

Astronomy

Oct. 23, 2019 Rise Set
Actual Time 7:38 AM CDT 6:09 PM CDT
Civil Twilight 7:07 AM CDT 6:40 PM CDT
Nautical Twilight 6:32 AM CDT 7:15 PM CDT
Astronomical Twilight 5:57 AM CDT 7:50 PM CDT
Moon 1:30 AM CDT (10/23) 4:24 PM CDT (10/23)
Length of Visible Light 11h 32m
Length of Day
10h 30m
Waning Crescent, 26% of the Moon is Illuminated
Oct 23
Waning Crescent
Oct 27
New
Nov 4
First Quarter
Nov 12
Full
Nov 19
Last Quarter

Hourly Weather History & Observations

Time (CDT) Temp. Windchill Dew Point Humidity Pressure Visibility Wind Dir Wind Speed Gust Speed Precip Events Conditions
12:15 AM 37.4 °F 28.9 °F 32.0 °F 81% 29.56 in 10.0 mi West 13.8 mph 23.0 mph N/A   Overcast
12:16 AM 37.4 °F 29.3 °F 32.0 °F 81% 29.56 in 10.0 mi West 12.7 mph 23.0 mph N/A   Overcast
12:35 AM 37.4 °F 29.3 °F 30.2 °F 75% 29.56 in 10.0 mi West 12.7 mph 24.2 mph N/A   Overcast
12:56 AM 37.4 °F 28.5 °F 30.2 °F 75% 29.57 in 10.0 mi West 15.0 mph 25.3 mph N/A   Overcast
1:15 AM 35.6 °F - 30.2 °F 81% 29.57 in 10.0 mi North - - N/A   Overcast
1:16 AM 35.6 °F 27.1 °F 30.2 °F 81% 29.57 in 10.0 mi West 12.7 mph 18.4 mph N/A   Scattered Clouds
1:35 AM 35.6 °F 26.6 °F 30.2 °F 81% 29.58 in 10.0 mi West 13.8 mph 19.6 mph N/A   Overcast
1:36 AM 35.6 °F 27.5 °F 30.2 °F 81% 29.58 in 10.0 mi West 11.5 mph 19.6 mph N/A   Overcast
1:55 AM 35.6 °F 27.1 °F 30.2 °F 81% 29.58 in 10.0 mi West 12.7 mph 19.6 mph N/A   Mostly Cloudy
2:15 AM 35.6 °F 28.6 °F 30.2 °F 81% 29.59 in 10.0 mi West 9.2 mph 18.4 mph N/A   Overcast
2:16 AM 35.6 °F 28.6 °F 30.2 °F 81% 29.59 in 10.0 mi West 9.2 mph 18.4 mph N/A   Overcast
2:35 AM 35.6 °F 28.0 °F 30.2 °F 81% 29.59 in 10.0 mi West 10.4 mph 17.3 mph N/A   Overcast
2:55 AM 35.6 °F 27.5 °F 30.2 °F 81% 29.60 in 10.0 mi West 11.5 mph - N/A   Overcast
2:56 AM 35.6 °F 27.1 °F 30.2 °F 81% 29.60 in 10.0 mi West 12.7 mph - N/A   Overcast
3:15 AM 35.6 °F 26.6 °F 30.2 °F 81% 29.60 in 10.0 mi West 13.8 mph 18.4 mph N/A   Overcast
3:35 AM 35.6 °F 27.1 °F 30.2 °F 81% 29.61 in 10.0 mi West 12.7 mph 17.3 mph N/A   Overcast
3:55 AM 35.6 °F 26.6 °F 30.2 °F 81% 29.61 in 10.0 mi West 13.8 mph 17.3 mph N/A   Overcast
4:15 AM 35.6 °F 26.2 °F 30.2 °F 81% 29.62 in 10.0 mi West 15.0 mph 20.7 mph N/A Rain Light Rain
4:16 AM 35.6 °F 26.2 °F 30.2 °F 81% 29.62 in 10.0 mi West 15.0 mph 20.7 mph N/A Rain Light Rain
4:35 AM 35.6 °F 28.0 °F 32.0 °F 87% 29.63 in 10.0 mi West 10.4 mph - N/A   Overcast
4:55 AM 35.6 °F 28.0 °F 30.2 °F 81% 29.64 in 10.0 mi West 10.4 mph 17.3 mph N/A Rain Light Rain
4:56 AM 35.6 °F 28.6 °F 30.2 °F 81% 29.64 in 10.0 mi West 9.2 mph 17.3 mph N/A Rain Light Rain
5:15 AM 35.6 °F 28.0 °F 30.2 °F 81% 29.65 in 10.0 mi West 10.4 mph 19.6 mph N/A   Overcast
5:16 AM 35.6 °F 28.6 °F 30.2 °F 81% 29.65 in 10.0 mi West 9.2 mph 19.6 mph N/A   Overcast
5:35 AM 35.6 °F 28.6 °F 30.2 °F 81% 29.66 in 10.0 mi West 9.2 mph 16.1 mph N/A   Overcast
5:55 AM 33.8 °F 24.8 °F 30.2 °F 87% 29.67 in 10.0 mi West 12.7 mph - N/A   Mostly Cloudy
6:15 AM 35.6 °F 28.0 °F 30.2 °F 81% 29.67 in 10.0 mi West 10.4 mph 16.1 mph N/A   Mostly Cloudy
6:35 AM 35.6 °F 29.2 °F 30.2 °F 81% 29.68 in 10.0 mi West 8.1 mph - N/A   Overcast
6:55 AM 35.6 °F 27.5 °F 30.2 °F 81% 29.69 in 10.0 mi West 11.5 mph 17.3 mph N/A   Overcast
7:15 AM 35.6 °F 28.0 °F 30.2 °F 81% 29.70 in 7.0 mi West 10.4 mph 19.6 mph N/A   Overcast
7:35 AM 33.8 °F 24.8 °F 30.2 °F 87% 29.70 in 10.0 mi West 12.7 mph 19.6 mph N/A   Overcast
7:36 AM 33.8 °F 25.3 °F 30.2 °F 87% 29.70 in 10.0 mi WNW 11.5 mph 19.6 mph N/A   Overcast
7:55 AM 33.8 °F 25.3 °F 30.2 °F 87% 29.71 in 10.0 mi West 11.5 mph 16.1 mph N/A   Mostly Cloudy
8:15 AM 33.8 °F 27.7 °F 30.2 °F 87% 29.72 in 10.0 mi West 6.9 mph 21.9 mph N/A   Scattered Clouds
8:35 AM 35.6 °F 27.1 °F 30.2 °F 81% 29.73 in 10.0 mi West 12.7 mph 16.1 mph N/A   Mostly Cloudy
8:55 AM 35.6 °F 27.5 °F 30.2 °F 81% 29.75 in 10.0 mi West 11.5 mph - N/A   Overcast
9:15 AM 35.6 °F 28.0 °F 30.2 °F 81% 29.75 in 10.0 mi West 10.4 mph - N/A   Overcast
9:16 AM 35.6 °F 27.5 °F 30.2 °F 81% 29.75 in 10.0 mi West 11.5 mph - N/A   Overcast
9:35 AM 37.4 °F 29.3 °F 30.2 °F 75% 29.76 in 10.0 mi West 12.7 mph 18.4 mph N/A   Overcast
9:36 AM 37.4 °F 28.9 °F 30.2 °F 75% 29.76 in 10.0 mi West 13.8 mph 18.4 mph N/A   Overcast
9:55 AM 37.4 °F 30.3 °F 30.2 °F 75% 29.77 in 10.0 mi West 10.4 mph 18.4 mph N/A   Overcast
9:56 AM 37.4 °F 29.8 °F 30.2 °F 75% 29.77 in 10.0 mi West 11.5 mph 17.3 mph N/A   Overcast
10:15 AM 37.4 °F 28.5 °F 30.2 °F 75% 29.77 in 7.0 mi WNW 15.0 mph 20.7 mph N/A Rain Rain
10:35 AM 37.4 °F 30.8 °F 33.8 °F 87% 29.77 in 5.0 mi WNW 9.2 mph 17.3 mph N/A Rain Light Rain
10:55 AM 37.4 °F 28.5 °F 33.8 °F 87% 29.78 in 10.0 mi WNW 15.0 mph 18.4 mph N/A Rain Light Rain
10:56 AM 37.4 °F 29.3 °F 33.8 °F 87% 29.78 in 7.0 mi WNW 12.7 mph 18.4 mph N/A Rain Light Rain
11:15 AM 39.2 °F 32.0 °F 32.0 °F 75% 29.79 in 10.0 mi West 11.5 mph 18.4 mph N/A   Mostly Cloudy
11:35 AM 39.2 °F 30.5 °F 30.2 °F 70% 29.80 in 10.0 mi West 16.1 mph 21.9 mph N/A   Overcast
11:55 AM 39.2 °F 32.5 °F 30.2 °F 70% 29.81 in 10.0 mi West 10.4 mph 19.6 mph N/A   Mostly Cloudy
12:15 PM 39.2 °F 30.8 °F 28.4 °F 65% 29.82 in 10.0 mi West 15.0 mph 19.6 mph N/A   Mostly Cloudy
12:16 PM 39.2 °F 31.2 °F 28.4 °F 65% 29.82 in 10.0 mi WNW 13.8 mph 19.6 mph N/A   Mostly Cloudy
12:35 PM 39.2 °F 30.8 °F 30.2 °F 70% 29.82 in 10.0 mi West 15.0 mph 19.6 mph N/A   Overcast
12:55 PM 41.0 °F 33.1 °F 28.4 °F 61% 29.83 in 10.0 mi WNW 15.0 mph 23.0 mph N/A   Overcast
1:15 PM 42.8 °F 36.6 °F 28.4 °F 57% 29.83 in 10.0 mi WNW 11.5 mph 19.6 mph N/A   Mostly Cloudy
1:16 PM 42.8 °F 35.8 °F 30.2 °F 61% 29.83 in 10.0 mi WNW 13.8 mph 19.6 mph N/A   Mostly Cloudy
1:35 PM 42.8 °F 34.8 °F 28.4 °F 57% 29.83 in 10.0 mi West 17.3 mph 21.9 mph N/A   Scattered Clouds
1:55 PM 42.8 °F 35.8 °F 28.4 °F 57% 29.84 in 10.0 mi West 13.8 mph 19.6 mph N/A   Mostly Cloudy
1:56 PM 42.8 °F 36.2 °F 28.4 °F 57% 29.84 in 10.0 mi West 12.7 mph 19.6 mph N/A   Mostly Cloudy
2:15 PM 42.8 °F 35.8 °F 30.2 °F 61% 29.84 in 10.0 mi WNW 13.8 mph 19.6 mph N/A   Mostly Cloudy
2:35 PM 42.8 °F 36.2 °F 28.4 °F 57% 29.84 in 10.0 mi WNW 12.7 mph 18.4 mph N/A   Mostly Cloudy
2:55 PM 42.8 °F 37.0 °F 30.2 °F 61% 29.85 in 10.0 mi West 10.4 mph 17.3 mph N/A   Overcast
2:56 PM 42.8 °F 38.0 °F 30.2 °F 61% 29.85 in 10.0 mi WNW 8.1 mph 17.3 mph N/A   Overcast
3:15 PM 42.8 °F 36.6 °F 28.4 °F 57% 29.86 in 10.0 mi West 11.5 mph - N/A   Overcast
3:35 PM 42.8 °F 36.2 °F 28.4 °F 57% 29.87 in 10.0 mi West 12.7 mph 20.7 mph N/A   Overcast
3:55 PM 42.8 °F 37.0 °F 28.4 °F 57% 29.88 in 10.0 mi West 10.4 mph 16.1 mph N/A   Overcast
4:15 PM 42.8 °F 35.8 °F 30.2 °F 61% 29.89 in 10.0 mi West 13.8 mph 19.6 mph N/A   Overcast
4:35 PM 42.8 °F 37.5 °F 30.2 °F 61% 29.90 in 10.0 mi West 9.2 mph 17.3 mph N/A   Mostly Cloudy
4:36 PM 42.8 °F 37.5 °F 30.2 °F 61% 29.90 in 10.0 mi West 9.2 mph 17.3 mph N/A   Overcast
4:55 PM 42.8 °F 36.6 °F 30.2 °F 61% 29.90 in 10.0 mi West 11.5 mph 16.1 mph N/A   Mostly Cloudy
4:56 PM 42.8 °F 36.2 °F 30.2 °F 61% 29.90 in 10.0 mi West 12.7 mph 16.1 mph N/A   Mostly Cloudy
5:15 PM 42.8 °F 37.5 °F 30.2 °F 61% 29.91 in 10.0 mi West 9.2 mph - N/A   Mostly Cloudy
5:16 PM 42.8 °F 37.5 °F 30.2 °F 61% 29.91 in 10.0 mi West 9.2 mph - N/A   Mostly Cloudy
5:36 PM 41.0 °F 34.7 °F 30.2 °F 65% 29.92 in 10.0 mi WNW 10.4 mph 17.3 mph N/A   Overcast
5:55 PM 39.2 °F 33.0 °F 30.2 °F 70% 29.93 in 10.0 mi West 9.2 mph - N/A   Mostly Cloudy
5:56 PM 39.2 °F 32.5 °F 30.2 °F 70% 29.93 in 10.0 mi West 10.4 mph - N/A   Mostly Cloudy
6:15 PM 39.2 °F 33.6 °F 30.2 °F 70% 29.94 in 10.0 mi WNW 8.1 mph - N/A   Scattered Clouds
6:35 PM 39.2 °F 32.0 °F 30.2 °F 70% 29.95 in 10.0 mi West 11.5 mph - N/A   Mostly Cloudy
6:55 PM 37.4 °F 29.8 °F 30.2 °F 75% 29.96 in 10.0 mi WNW 11.5 mph 16.1 mph N/A   Scattered Clouds
6:56 PM 37.4 °F 29.8 °F 30.2 °F 75% 29.96 in 10.0 mi WNW 11.5 mph 16.1 mph N/A   Scattered Clouds
7:15 PM 37.4 °F 29.8 °F 30.2 °F 75% 29.97 in 10.0 mi WNW 11.5 mph 16.1 mph N/A   Clear
7:35 PM 37.4 °F 30.3 °F 30.2 °F 75% 29.98 in 10.0 mi WNW 10.4 mph - N/A   Clear
7:36 PM 37.4 °F 30.8 °F 30.2 °F 75% 29.98 in 10.0 mi WNW 9.2 mph - N/A   Clear
7:55 PM 37.4 °F 30.3 °F 30.2 °F 75% 29.98 in 10.0 mi WNW 10.4 mph - N/A   Clear
8:15 PM 35.6 °F 28.6 °F 30.2 °F 81% 29.99 in 10.0 mi West 9.2 mph - N/A   Clear
8:35 PM 35.6 °F 27.1 °F 30.2 °F 81% 30.00 in 10.0 mi WNW 12.7 mph 17.3 mph N/A   Clear
8:55 PM 35.6 °F 28.6 °F 30.2 °F 81% 30.01 in 10.0 mi WNW 9.2 mph - N/A   Clear
8:56 PM 35.6 °F 28.0 °F 30.2 °F 81% 30.01 in 10.0 mi WNW 10.4 mph - N/A   Clear
9:15 PM 35.6 °F 28.6 °F 30.2 °F 81% 30.01 in 10.0 mi West 9.2 mph - N/A   Clear
9:16 PM 35.6 °F 28.6 °F 30.2 °F 81% 30.01 in 10.0 mi West 9.2 mph - N/A   Clear
9:35 PM 35.6 °F 27.5 °F 30.2 °F 81% 30.02 in 10.0 mi West 11.5 mph 16.1 mph N/A   Clear
9:36 PM 35.6 °F 27.5 °F 30.2 °F 81% 30.02 in 10.0 mi West 11.5 mph 16.1 mph N/A   Clear
9:55 PM 35.6 °F 27.5 °F 30.2 °F 81% 30.03 in 10.0 mi West 11.5 mph 18.4 mph N/A   Mostly Cloudy
9:56 PM 35.6 °F 28.0 °F 30.2 °F 81% 30.03 in 10.0 mi West 10.4 mph 18.4 mph N/A   Mostly Cloudy
10:15 PM 37.4 °F 29.8 °F 30.2 °F 75% 30.03 in 10.0 mi West 11.5 mph 17.3 mph N/A   Overcast
10:16 PM 37.4 °F 29.3 °F 30.2 °F 75% 30.03 in 10.0 mi West 12.7 mph 17.3 mph N/A   Overcast
10:35 PM 37.4 °F 30.3 °F 30.2 °F 75% 30.04 in 10.0 mi WNW 10.4 mph - N/A   Mostly Cloudy
10:55 PM 35.6 °F 27.5 °F 28.4 °F 75% 30.04 in 10.0 mi West 11.5 mph 20.7 mph N/A   Scattered Clouds
11:15 PM 37.4 °F 29.8 °F 30.2 °F 75% 30.05 in 10.0 mi West 11.5 mph - N/A   Mostly Cloudy
11:16 PM 37.4 °F 29.8 °F 30.2 °F 75% 30.05 in 10.0 mi West 11.5 mph - N/A   Overcast
11:35 PM 37.4 °F 29.8 °F 28.4 °F 70% 30.05 in 10.0 mi West 11.5 mph 16.1 mph N/A   Overcast
11:36 PM 37.4 °F 30.3 °F 28.4 °F 70% 30.05 in 10.0 mi West 10.4 mph 16.1 mph N/A   Overcast
11:55 PM 37.4 °F 29.8 °F 28.4 °F 70% 30.06 in 10.0 mi West 11.5 mph - N/A   Overcast